Regional Weather Roundup
Issued by NWS

Home | Current Version | Previous Version | Text Only | Print | Product List | Glossary Off
Versions: 1 2 3 4 5 6 7 8 9 10 11 12 13 14 15 16 17 18 19 20 21 22 23 24 25 26 27 28 29 30 31 32 33 34 35 36 37 38 39 40 41 42 43 44 45 46 47 48 49 50

000
ASUS43 KBIS 271702
RWRND

NORTH DAKOTA REGIONAL WEATHER ROUNDUP
NATIONAL WEATHER SERVICE BISMARCK ND
1200 PM CDT SUN MAY 27 2018

NOTE: "FAIR" INDICATES FEW OR NO CLOUDS BELOW 12,000 FEET WITH NO
SIGNIFICANT WEATHER AND/OR OBSTRUCTIONS TO VISIBILITY.


NDZ001>003-009>011-017-271800-
NORTHWEST NORTH DAKOTA

CITY           SKY/WX    TMP DP  RH WIND       PRES   REMARKS
WILLISTON      PTSUNNY   75  58  55 E6        29.94R
MINOT          PTSUNNY   77  58  51 E7        29.87R
MINOT AFB      CLOUDY    77  57  50 SE6       29.86R
$$

NDZ018>021-031>035-040>046-271800-
SOUTHWEST NORTH DAKOTA

CITY           SKY/WX    TMP DP  RH WIND       PRES   REMARKS
BISMARCK       PTSUNNY   75  59  57 NW9       29.86R
DICKINSON      CLOUDY    72  58  61 N14       29.87F
GARRISON         N/A     70  61  73 NE8       29.89R
HETTINGER ARPT MOSUNNY   73  57  57 NW14      29.89S
$$

NDZ004>008-012>016-024-026-027-054-271800-
NORTHEAST NORTH DAKOTA

CITY           SKY/WX    TMP DP  RH WIND       PRES   REMARKS
GRAND FORKS    CLOUDY    73  64  73 NW6       29.82R
GRND FRKS AFB  PTSUNNY   73  64  73 N7        29.84R
DEVILS LAKE    FAIR      71  62  73 NE12      29.88R
$$

NDZ022-023-025-028>030-036>039-047>053-271800-
SOUTHEAST NORTH DAKOTA

CITY           SKY/WX    TMP DP  RH WIND       PRES   REMARKS
FARGO          FAIR      73  59  61 SE8G23    29.78R
JAMESTOWN      CLOUDY    72  59  63 VRB6      29.79R
$$





USA.gov is the U.S. government's official web portal to all federal, state and local government web resources and services.